Regional Weather Roundup
Issued by NWS Kansas City/Pleasant Hill, MO

Home | Current Version | Previous Version | Graphics & Text | Print | Product List | Glossary Off
Versions: 1 2 3 4 5 6 7 8 9 10 11 12 13 14 15 16 17 18 19 20 21 22 23 24 25 26 27 28

000
ASUS43 KEAX 051110
RWREAX

WEATHER ROUNDUP FOR EASTERN KANSAS AND NORTHWEST MISSOURI
NATIONAL WEATHER SERVICE KANSAS CITY/PLEASANT HILL MO
600 AM CDT THU MAY 05 2016

KSZ040-057-103>105-MOZ028-029-037-043-051200-
...KANSAS CITY METROPOLITAN AREA...

CITY           SKY/WX    TMP DP  RH WIND       PRES   REMARKS
K.C. INTL      PTCLDY    47  40  76 NW7       30.02R
K.C. DOWNTOWN  CLEAR     49  44  83 CALM      30.02R
LEES SUMMIT    CLEAR     48  40  73 NW5       30.02R
OLATHE - IXD   CLEAR     47  41  80 W8        30.04R
OLATHE - OJC   CLEAR     48  39  71 W7        30.02R
LAWRENCE       CLEAR     42  40  92 NW7       30.04R

$$

MOZ001>008-011>017-020>025-030>033-038>040-044>046-053-054-051200-
...NORTHERN AND CENTRAL MISSOURI...

CITY           SKY/WX    TMP DP  RH WIND       PRES   REMARKS
ST. JOSEPH     CLEAR     41  40  96 CALM      30.03R
MOSBY          SUNNY     43  43 100 CALM      30.02R
WARRENSBURG    CLEAR     45  39  81 NW3       30.00R
WHITEMAN AFB   CLEAR     46  40  79 W1        29.99R
CLINTON        CLEAR     43  39  87 CALM      30.00R
SEDALIA        CLEAR     48  39  71 NW5       30.00R
WARSAW         NOT AVBL
CHILLICOTHE      N/A     43  40  89 CALM      30.02R
KIRKSVILLE     CLEAR     42  34  73 N8        30.01R

$$

MOZ041-047>049-056>058-063>065-088>090-097-051200-
...EASTERN AND SOUTHERN MISSOURI...

CITY           SKY/WX    TMP DP  RH WIND       PRES   REMARKS
ST. LOUIS INTL CLEAR     49  37  63 N9        29.94R
SPIRIT OF STL  CLEAR     47  37  68 N3        29.94R
COLUMBIA       CLEAR     43  38  82 N7        29.97R
JEFFERSON CITY CLEAR     44  41  89 NW5       29.97R
ROLLA          CLEAR     43  36  76 NW6       29.94R
OSAGE BEACH    CLEAR     43  34  70 W3        29.98R
SPRINGFIELD    CLEAR     44  36  73 W3        29.99R
JOPLIN         CLEAR     42  40  92 CALM      30.03R
WEST PLAINS    CLEAR     46  35  65 NW6       29.96R

$$

IAZ060-094-KSZ022-034>040-054-083-096-NEZ052-066-093-051200-
...KANSAS...SOUTHEAST NEBRASKA AND IOWA...

CITY           SKY/WX    TMP DP  RH WIND       PRES   REMARKS
TOPEKA         CLEAR     47  42  83 CALM      30.04R
MANHATTAN      CLEAR     40  37  89 SW3       30.07R
EMPORIA        CLEAR     46  40  79 W6        30.05R
CHANUTE        CLEAR     44  39  82 NW3       30.04R
WICHITA        CLEAR     48  39  71 NW6       30.07R
OMAHA          PTCLDY    44  40  85 CALM      30.05R
LINCOLN        CLEAR     40  36  86 N5        30.07R
FALLS CITY     CLEAR     42  38  85 NW3       30.03R
LAMONI         CLEAR     45  36  70 N6        30.02R
DES MOINES     PTCLDY    45  37  73 CALM      30.04R

$$





USA.gov is the U.S. government's official web portal to all federal, state and local government web resources and services.